Ionia, MI

10:25 PM EDT on July 22, 2017 (GMT -0400)
Ionia

Weather History for KY70 - June, 2013

Change the Weather History Date:

Sunday, June 30, 2013

  Actual Average (KGRR) Record (KGRR)
Temperature  
Mean Temperature 68 °F -  
Max Temperature 77 °F 79 °F 99 °F (1931)
Min Temperature 59 °F 59 °F 40 °F (1943)
Cooling Degree Days 3    
Growing Degree Days 18 (Base 50)    
Moisture  
Dew Point 57 °F    
Average Humidity 68    
Maximum Humidity 96    
Minimum Humidity 41    
Precipitation  
Precipitation 0.00 in - - ()
Sea Level Pressure  
Sea Level Pressure 29.87 in    
Wind  
Wind Speed 7 mph (NE)    
Max Wind Speed 15 mph    
Max Gust Speed 23 mph    
Visibility 10 miles    
Events      
Averages and records for this station are not official NWS values.
T = Trace of Precipitation, MM = Missing Value Source: NWS Daily Summary

Daily Weather History Graph

Daily Weather History Graph

Search for Another Location

Airport or City:

Trip Planner

Search our weather history database for the weather conditions in past years. The results will help you decide how hot, cold, wet, or windy it might be!

Date:

Astronomy

Jun. 30, 2013 Rise Set
Actual Time 6:04 AM EDT 9:23 PM EDT
Civil Twilight 5:29 AM EDT 9:58 PM EDT
Nautical Twilight 4:44 AM EDT 10:43 PM EDT
Astronomical Twilight 3:48 AM EDT 11:39 PM EDT
Moon 1:10 AM EDT (6/30) 2:30 PM EDT (6/30)
Length of Visible Light 16h 28m
Length of Day
15h 18m
Last Quarter, 45% of the Moon is Illuminated
Jun 30
Last Quarter
Jul 8
New
Jul 15
First Quarter
Jul 22
Full
Jul 29
Last Quarter

Hourly Weather History & Observations

Time (EDT) Temp. Dew Point Humidity Pressure Visibility Wind Dir Wind Speed Gust Speed Precip Events Conditions
12:14 AM 64.8 °F 59.0 °F 82% 29.77 in 10.0 mi NE 6.9 mph - N/A   Overcast
12:34 AM 64.4 °F 58.3 °F 80% 29.77 in 10.0 mi NE 6.9 mph - N/A   Overcast
12:54 AM 63.9 °F 57.9 °F 81% 29.78 in 10.0 mi NE 6.9 mph - N/A   Overcast
1:14 AM 63.5 °F 57.7 °F 81% 29.78 in 10.0 mi NE 5.8 mph - N/A   Mostly Cloudy
1:34 AM 63.3 °F 57.7 °F 82% 29.79 in 10.0 mi NE 5.8 mph - N/A   Overcast
1:54 AM 63.3 °F 57.4 °F 81% 29.79 in 10.0 mi NE 4.6 mph - N/A   Overcast
2:14 AM 62.8 °F 57.0 °F 81% 29.79 in 10.0 mi NNE 6.9 mph - N/A   Mostly Cloudy
2:34 AM 61.9 °F 57.2 °F 85% 29.79 in 10.0 mi NNE 5.8 mph - N/A   Scattered Clouds
2:54 AM 61.7 °F 57.2 °F 85% 29.79 in 10.0 mi NNE 5.8 mph - N/A   Mostly Cloudy
3:14 AM 61.5 °F 57.4 °F 86% 29.79 in 10.0 mi NNE 6.9 mph - N/A   Overcast
3:34 AM 61.3 °F 57.6 °F 87% 29.79 in 10.0 mi NNE 6.9 mph - N/A   Scattered Clouds
3:54 AM 60.8 °F 57.4 °F 88% 29.80 in 10.0 mi NNE 4.6 mph - N/A   Clear
4:14 AM 60.3 °F 57.7 °F 91% 29.80 in 10.0 mi NNE 3.5 mph - N/A   Scattered Clouds
4:34 AM 60.8 °F 58.1 °F 91% 29.80 in 10.0 mi Calm Calm - N/A   Scattered Clouds
4:54 AM 60.6 °F 58.1 °F 91% 29.81 in 10.0 mi Calm Calm - N/A   Mostly Cloudy
5:14 AM 59.7 °F 57.6 °F 93% 29.81 in 10.0 mi Calm Calm - N/A   Overcast
5:34 AM 60.6 °F 57.9 °F 91% 29.81 in 10.0 mi Calm Calm - N/A   Overcast
5:54 AM 59.9 °F 57.9 °F 93% 29.81 in 10.0 mi Calm Calm - N/A   Overcast
6:14 AM 59.4 °F 58.1 °F 96% 29.82 in 10.0 mi North 3.5 mph - N/A   Overcast
6:34 AM 60.8 °F 58.5 °F 92% 29.82 in 10.0 mi North 3.5 mph - N/A   Mostly Cloudy
6:54 AM 61.2 °F 59.0 °F 93% 29.83 in 10.0 mi North 4.6 mph - N/A   Clear
7:14 AM 62.6 °F 59.4 °F 89% 29.83 in 10.0 mi NNE 4.6 mph - N/A   Scattered Clouds
7:34 AM 63.3 °F 59.5 °F 87% 29.84 in 10.0 mi NNE 4.6 mph - N/A   Scattered Clouds
7:54 AM 64.4 °F 59.4 °F 84% 29.84 in 10.0 mi NNE 8.1 mph - N/A   Scattered Clouds
8:14 AM 65.1 °F 59.4 °F 82% 29.84 in 10.0 mi NE 4.6 mph - N/A   Mostly Cloudy
8:34 AM 65.7 °F 59.4 °F 80% 29.85 in 10.0 mi NE 8.1 mph - N/A   Scattered Clouds
8:54 AM 67.5 °F 59.5 °F 76% 29.85 in 10.0 mi NNE 6.9 mph - N/A   Scattered Clouds
9:14 AM 68.0 °F 59.5 °F 74% 29.86 in 10.0 mi NE 8.1 mph - N/A   Clear
9:34 AM 69.3 °F 60.8 °F 74% 29.87 in 10.0 mi NE 6.9 mph - N/A   Scattered Clouds
9:54 AM 69.4 °F 59.7 °F 71% 29.87 in 10.0 mi NE 5.8 mph - N/A   Scattered Clouds
10:14 AM 69.6 °F 60.3 °F 72% 29.87 in 10.0 mi NE 5.8 mph - N/A   Clear
10:34 AM 71.1 °F 60.6 °F 69% 29.87 in 10.0 mi NE 8.1 mph - N/A   Clear
10:54 AM 71.6 °F 61.2 °F 70% 29.87 in 10.0 mi ENE 5.8 mph - N/A   Clear
11:14 AM 72.7 °F 60.6 °F 66% 29.88 in 10.0 mi NE 6.9 mph - N/A   Clear
11:34 AM 73.2 °F 62.4 °F 69% 29.88 in 10.0 mi NNE 8.1 mph - N/A   Clear
11:54 AM 72.5 °F 62.4 °F 71% 29.89 in 10.0 mi NNE 6.9 mph - N/A   Clear
12:14 PM 73.2 °F 62.2 °F 68% 29.89 in 10.0 mi NE 6.9 mph - N/A   Clear
12:34 PM 73.8 °F 61.5 °F 65% 29.89 in 10.0 mi ENE 9.2 mph - N/A   Clear
12:54 PM 73.9 °F 61.2 °F 64% 29.89 in 10.0 mi ENE 4.6 mph - N/A   Clear
1:14 PM 74.7 °F 62.2 °F 65% 29.89 in 10.0 mi NNE 10.4 mph - N/A   Clear
1:34 PM 74.3 °F 61.9 °F 65% 29.89 in 10.0 mi NNE 8.1 mph - N/A   Clear
1:54 PM 75.2 °F 62.8 °F 65% 29.90 in 10.0 mi NE 4.6 mph - N/A   Scattered Clouds
2:14 PM 75.6 °F 62.8 °F 64% 29.90 in 10.0 mi NNE 9.2 mph - N/A   Scattered Clouds
2:34 PM 75.6 °F 61.9 °F 62% 29.90 in 10.0 mi NE 10.4 mph - N/A   Clear
2:54 PM 76.1 °F 61.7 °F 61% 29.89 in 10.0 mi NNE 11.5 mph - N/A   Clear
3:14 PM 76.5 °F 62.2 °F 61% 29.90 in 10.0 mi ENE 13.8 mph - N/A   Clear
3:34 PM 77.0 °F 62.8 °F 61% 29.89 in 10.0 mi NE 13.8 mph 18.4 mph N/A   Scattered Clouds
3:54 PM 76.8 °F 61.0 °F 58% 29.90 in 10.0 mi NNE 11.5 mph 16.1 mph N/A   Scattered Clouds
4:14 PM 77.9 °F 59.7 °F 53% 29.90 in 10.0 mi NE 13.8 mph 20.7 mph N/A   Scattered Clouds
4:34 PM 77.5 °F 57.4 °F 50% 29.90 in 10.0 mi NNE 11.5 mph 23.0 mph N/A   Scattered Clouds
4:54 PM 77.7 °F 57.9 °F 50% 29.90 in 10.0 mi NE 15.0 mph 19.6 mph N/A   Clear
5:14 PM 77.9 °F 56.5 °F 48% 29.90 in 10.0 mi NE 13.8 mph 19.6 mph N/A   Clear
5:34 PM 77.5 °F 51.8 °F 41% 29.90 in 10.0 mi ENE 15.0 mph 19.6 mph N/A   Clear
5:54 PM 77.4 °F 54.0 °F 44% 29.90 in 10.0 mi ENE 11.5 mph 16.1 mph N/A   Clear
6:14 PM 77.0 °F 54.1 °F 45% 29.91 in 10.0 mi NE 8.1 mph 17.3 mph N/A   Clear
6:34 PM 76.6 °F 53.6 °F 45% 29.91 in 10.0 mi ENE 12.7 mph 17.3 mph N/A   Clear
6:54 PM 76.1 °F 51.3 °F 42% 29.92 in 10.0 mi ENE 12.7 mph 17.3 mph N/A   Clear
7:14 PM 75.7 °F 52.3 °F 44% 29.92 in 10.0 mi ENE 12.7 mph - N/A   Mostly Cloudy
7:34 PM 74.5 °F 52.2 °F 46% 29.93 in 10.0 mi ENE 10.4 mph - N/A   Overcast
7:54 PM 74.1 °F 54.7 °F 51% 29.94 in 10.0 mi ENE 10.4 mph - N/A   Overcast
8:14 PM 73.4 °F 55.8 °F 54% 29.95 in 10.0 mi East 8.1 mph - N/A   Mostly Cloudy
8:34 PM 72.1 °F 51.8 °F 49% 29.95 in 10.0 mi ENE 8.1 mph - N/A   Scattered Clouds
8:54 PM 70.2 °F 51.3 °F 51% 29.95 in 10.0 mi ENE 8.1 mph - N/A   Clear
9:14 PM 68.9 °F 51.8 °F 54% 29.95 in 10.0 mi ENE 9.2 mph - N/A   Clear
9:34 PM 67.3 °F 50.9 °F 56% 29.96 in 10.0 mi ENE 9.2 mph - N/A   Clear
9:54 PM 65.5 °F 48.7 °F 55% 29.97 in 10.0 mi ENE 5.8 mph - N/A   Clear
10:14 PM 64.9 °F 45.0 °F 48% 29.98 in 10.0 mi ENE 12.7 mph 17.3 mph N/A   Clear
10:34 PM 64.4 °F 41.2 °F 43% 29.99 in 10.0 mi ENE 6.9 mph - N/A   Clear
10:54 PM 62.1 °F 42.1 °F 48% 29.99 in 10.0 mi ENE 4.6 mph - N/A   Clear
11:14 PM 62.1 °F 41.9 °F 48% 29.99 in 10.0 mi NE 5.8 mph - N/A   Clear
11:34 PM 60.4 °F 43.2 °F 53% 29.99 in 10.0 mi NE 5.8 mph - N/A   Clear
11:54 PM 59.9 °F 43.2 °F 54% 30.00 in 10.0 mi NNE 5.8 mph - N/A   Clear